Home > Weather > Kehl > Past weeks

Flag for Germany Past Weather in Kehl, Baden-Württemberg, Germany — Yesterday and Last 2 Weeks

Now
77 °F

Partly sunny.


Feels Like: 79 °F
Forecast: 54 / 67 °F
Wind: 8 mph from West

Location: Strasbourg Airport

Current Time: Jul 1, 2016 at 1:40:51 PM

Latest Report: Jul 1, 2016 at 1:00 PM


Visibility: N/A

Pressure: 30.04 "Hg

Humidity: 51%

Dew Point: 57 °F

Location of KehlLocation

Past Weather in Kehl — Graph

°F

Kehl Temperature Yesterday

Maximum temperature yesterday: 79 °F (at 5:00 PM)
Minimum temperature yesterday: 63 °F (at 12:00 AM)
Average temperature yesterday: 70 °F

High & Low Weather Summary for the Past Weeks

 TemperatureHumidityPressure
High93 °F (Jun 23, 4:30 PM)100% (Jun 17, 4:30 AM)30.27 "Hg (Jun 17, 4:30 AM)
Low50 °F (Jun 20, 4:30 AM)42% (Jun 29, 3:30 PM)29.59 "Hg (Jun 16, 5:30 PM)
Average67 °F76%30.05 "Hg
* Reported Jun 16 12:00 PM — Jul 1 12:30 PM, Kehl, Weather by CustomWeather, © 2016

Note: Actual official high and low records may vary slightly from our data, if they occured in-between our weather recording intervals... More about our weather records

Advertising

Kehl Weather History for the Previous 24 Hours

Scroll right to see more
 ConditionsComfort  
Time TempWeatherWind HumidityBarometerVisibility
12:30 PM
Fri, Jul 1
75 °FPartly sunny.5 mph54%30.04 "HgN/A
12:00 PM73 °FCloudy.6 mph65%30.07 "HgN/A
11:30 AM73 °FCloudy.10 mph61%30.07 "HgN/A
11:00 AM75 °FBroken clouds.9 mph57%30.04 "HgN/A
10:30 AM73 °FPartly sunny.12 mph65%30.07 "HgN/A
10:00 AM72 °FPassing clouds.9 mph69%30.07 "HgN/A
9:30 AM68 °FOvercast.5 mph78%30.07 "HgN/A
9:00 AM66 °FMore clouds than sun.3 mph83%30.07 "HgN/A
8:30 AM66 °FOvercast.3 mph83%30.07 "HgN/A
8:00 AM66 °FSunny.2 mph83%30.07 "Hg10 mi
7:30 AM64 °FSunny.3 mph88%30.07 "Hg10 mi
7:00 AM64 °FPassing clouds.5 mph83%30.04 "HgN/A
6:30 AM63 °FPassing clouds.5 mph94%30.04 "HgN/A
6:00 AM63 °FPassing clouds.3 mph88%30.04 "HgN/A
5:30 AM63 °FOvercast.3 mph88%30.04 "HgN/A
5:00 AM63 °FOvercast.3 mph88%30.04 "HgN/A
4:30 AM63 °FClear.1 mph88%30.04 "Hg10 mi
4:00 AM63 °FClear.3 mph88%30.04 "Hg10 mi
3:30 AM63 °FClear.3 mph88%30.04 "Hg10 mi
3:00 AM63 °FClear.3 mph88%30.04 "Hg10 mi
2:30 AM64 °FPassing clouds.2 mph83%30.04 "HgN/A
2:00 AM64 °FMostly cloudy.5 mph83%30.04 "HgN/A
1:30 AM64 °FClear.6 mph83%30.04 "Hg10 mi
1:00 AM66 °FMostly cloudy.5 mph78%30.04 "HgN/A
12:30 AM66 °FMostly cloudy.6 mph78%30.04 "HgN/A
12:00 AM66 °FClear.3 mph78%30.04 "Hg10 mi
11:30 PM
Thu, Jun 30
66 °FClear.6 mph78%30.04 "Hg10 mi
11:00 PM66 °FClear.3 mph78%30.04 "Hg10 mi
10:30 PM68 °FClear.5 mph73%30.04 "HgN/A
10:00 PM70 °FHaze.3 mph64%30.01 "Hg2 mi
9:30 PM72 °FSunny.8 mph61%30.01 "Hg10 mi
9:00 PM73 °FSunny.10 mph57%30.01 "Hg10 mi
8:30 PM75 °FSunny.9 mph57%29.98 "Hg10 mi
8:00 PM73 °FSunny.6 mph61%29.98 "Hg10 mi
7:30 PM73 °FSunny.7 mph61%29.98 "Hg10 mi
7:00 PM73 °FSunny.7 mph61%29.98 "Hg10 mi
6:30 PM75 °FMore clouds than sun.8 mph57%29.98 "HgN/A
6:00 PM77 °FSunny.2 mph57%29.95 "Hg10 mi
5:30 PM77 °FSunny.1 mph54%29.98 "Hg10 mi
5:00 PM79 °FSunny.3 mph51%29.98 "Hg10 mi
4:30 PM77 °FPassing clouds.3 mph57%29.98 "HgN/A
4:00 PM75 °FSunny.5 mph61%29.98 "Hg10 mi
3:30 PM75 °FMostly cloudy.6 mph61%29.98 "HgN/A
3:00 PM77 °FPartly sunny.7 mph54%29.98 "HgN/A
2:30 PM75 °FBroken clouds.9 mph57%29.98 "HgN/A
2:00 PM75 °FBroken clouds.6 mph61%29.98 "HgN/A
1:30 PM73 °FPartly sunny.9 mph65%29.98 "HgN/A
1:00 PM75 °FBroken clouds.8 mph65%29.98 "HgN/A
Weather by CustomWeather, © 2016

See weather overviewHow to use our weather pages